Find Starlink 3651

NORAD ID: 51985 Int'l Des: 2022-025 Owner: SPXS Country: US Constellation: starlink operational
LEOCIRCULAR

Live Position

Loading 3D Globe...

About Starlink 3651

Description loading...

Upcoming Passes

Passes for default location (London). Set your location on the main map for personalized predictions.

Altitude History

Loading altitude history...

Two-Line Element Set

1 51985U 22025AF 26105.63344259 -.00001583 00000-0 -81392-4 0 9995
2 51985 53.2181 233.2830 0001378 87.8198 272.2952 15.08840075226637
Epoch: Apr 15, 2026 • Age: 14 hours

Current Status

Altitude 542.2 km
Velocity 7.59 km/s
Sub-Earth Point -8.14°S, 141.11°E
Launch Date Mar 9, 2022
Age 4.1 years
Type internet

Technical Details

Classification Payload
Mass 297.00 kg
Dry Mass 275.00 kg
Total Mass 297.00 kg
Length 0.20 m
Diameter 2.80 m
Span 9.00 m
Shape Box + pan
Manufacturer SPXS
Bus Type Starlink
Phase Status In Orbit
Owner/State SPXS/US

Most Searched